Regional Weather Roundup
Issued by NWS

Home | Current Version | Previous Version | Text Only | Print | Product List | Glossary Off
Versions: 1 2 3 4 5 6 7 8 9 10 11 12 13 14 15 16 17 18 19 20 21 22 23 24 25 26 27 28 29 30 31 32 33 34 35 36 37 38 39 40 41 42 43 44 45 46 47 48 49 50

000
ASUS43 KOAX 092102
RWRNE

WEATHER ROUNDUP FOR NEBRASKA
NATIONAL WEATHER SERVICE OMAHA NE
400 PM CDT WED JUL 09 2014

NOTES: SATELLITE DATA IS BEING USED TO AUGMENT CLOUD COVER ABOVE
       12000 FEET.
       "FAIR" INDICATES FEW OR NO CLOUDS BELOW 12,000 FEET WITH NO
       SIGNIFICANT WEATHER AND/OR OBSTRUCTIONS TO VISIBILITY.

  * THESE STATIONS DO NOT REPORT WEATHER SUCH AS RAIN...SNOW OR FOG.

NEZ001>004-019>022-054>056-092200-
NEBRASKA PANHANDLE

CITY           SKY/WX    TMP DP  RH WIND       PRES   REMARKS
SCOTTSBLUFF    SUNNY     91  58  32 VRB5      29.96F HX  90
ALLIANCE       SUNNY     92  50  23 VRB5      29.97F
CHADRON        SUNNY     87  58  37 N8G18     29.96
KIMBALL        SUNNY     91  47  21 S15       30.02S
SIDNEY         SUNNY     91  54  28 S17       30.01
$$

NEZ057>060-069>072-079>082-092200-
SOUTHWEST NEBRASKA

CITY           SKY/WX    TMP DP  RH WIND       PRES   REMARKS
NORTH PLATTE   SUNNY     88  59  37 S20G28    29.95F
IMPERIAL       SUNNY     92  59  33 S17       29.96F HX  91
LEXINGTON      MOSUNNY   90  57  33 S17G25    29.97S
MCCOOK         MOSUNNY   90  59  35 S20G26    29.97
OGALLALA       SUNNY     89  58  35 S13       29.95F
$$

NEZ005>010-023>029-035>040-094-092200-
NORTH CENTRAL NEBRASKA

CITY           SKY/WX    TMP DP  RH WIND       PRES   REMARKS
VALENTINE      MOSUNNY   70  56  61 E18       30.05R
AINSWORTH      CLOUDY    66  60  81 NE8       30.08R
BROKEN BOW     PTSUNNY   80  63  55 SE16G24   30.00R
O`NEILL        RAIN      63  58  83 E7        30.05F
ORD            CLOUDY    72  62  71 E7        30.04R
THEDFORD       PTSUNNY   78  62  58 E17       30.01R
$$

NEZ041-046>049-061>064-073>077-083>087-092200-
SOUTH CENTRAL NEBRASKA

CITY           SKY/WX    TMP DP  RH WIND       PRES   REMARKS
GRAND ISLAND   CLOUDY    80  62  54 E17       30.02F
AURORA         CLOUDY    80  62  54 SE13      30.03F
HASTINGS       CLOUDY    83  56  39 SE13G18   30.02F
HEBRON         CLOUDY    85  59  40 S6        30.03F
HOLDREGE       MOSUNNY   85  56  35 S14G23    29.97F
KEARNEY *      PTSUNNY   84  63  48 S16G22    30.00S
YORK           CLOUDY    72  63  73 E10       30.05F
$$

NEZ011>018-030>034-042>045-092200-
NORTHEAST NEBRASKA

CITY           SKY/WX    TMP DP  RH WIND       PRES   REMARKS
NORFOLK        CLOUDY    77  59  53 S9        30.03F
ALBION         CLOUDY    70  57  63 CALM      30.06F
BLAIR          MOSUNNY   81  59  47 S7        30.05F
FREMONT        PTSUNNY   81  58  45 S5        30.04F
TEKAMAH        PTSUNNY   83  58  42 S9        30.02F
WAYNE          CLOUDY    81  58  45 SW9       30.02F
$$

NEZ050>053-065>068-078-088>093-092200-
SOUTHEAST NEBRASKA

CITY           SKY/WX    TMP DP  RH WIND       PRES   REMARKS
LINCOLN        LGT RAIN  82  57  42 W7        30.06S
OMAHA EPPLEY   MOSUNNY   82  56  40 SW5       30.04F
BEATRICE       MOSUNNY   80  58  46 S7        30.05F
FALLS CITY     SUNNY     84  57  39 VRB6      30.04F
NEBRASKA CITY  SUNNY     81  55  41 SW5       30.06S
PLATTSMOUTH    MOSUNNY   81  55  41 S5        30.06S
$$

NEZ044-045-051>053-067-092200-
OMAHA AREA

CITY           SKY/WX    TMP DP  RH WIND       PRES   REMARKS
OMAHA EPPLEY   MOSUNNY   82  56  40 SW5       30.04F
BLAIR          MOSUNNY   81  59  47 S7        30.05F
FREMONT        PTSUNNY   81  58  45 S5        30.04F
MILLARD        MOSUNNY   82  58  43 SW6       30.04F
OFFUTT AFB     MOSUNNY   83  59  44 SW6       30.04F
PLATTSMOUTH    MOSUNNY   81  55  41 S5        30.06S
WAHOO          FAIR      80  59  48 S6        30.04F
$$


USA.gov is the U.S. government's official web portal to all federal, state and local government web resources and services.